Tracking 30061 objects as of 8-Dec-2024
HD Live streaming from Space Station
objects crossing your sky now

STARLINK-6095

Track STARLINK-6095 now!
10-day predictions
STARLINK-6095 is classified as:


NORAD ID: 56101
Int'l Code: 2023-046J
Perigee: 565.3 km
Apogee: 567.1 km
Inclination: 43.0 °
Period: 95.8 minutes
Semi major axis: 6937 km
RCS: Unknown
Launch date: March 29, 2023
Source: United States (US)
Launch site: AIR FORCE EASTERN TEST RANGE (AFETR)
Your satellite tracking list
Your tracking list is empty




NASA's NSSDC Master Catalog

Two Line Element Set (TLE):
1 56101U 23046J   24342.67043181  .00001493  00000-0  12555-3 0  9991
2 56101  43.0036 122.3372 0001340 271.7365  88.3324 15.02537637 93313
Source of the keplerian elements: AFSPC